Location: Unspecified
(0.0000°N, 0.0000°E)
Time: 06:34:19
(UTC+00:00)

Transit 2A Rocket - Pass Details

Date: 22 November 2019
Orbit: 594 x 909 km, 66.7° (Epoch: 11 December)

Event Time Altitude Azimuth Distance (km) Brightness Sun altitude
Rises 07:42:18 0° 327° (NNW) 3,008 7.6 27.1°
Reaches altitude 10° 07:44:37 10° 320° (NW) 2,143 6.9 27.7°
Maximum altitude 07:49:13 42° 249° (WSW) 1,048 5.7 28.7°
Drops below altitude 10° 07:54:16 10° 179° (S) 2,350 7.9 29.9°
Sets 07:56:55 0° 172° (S) 3,335 8.7 30.5°
